Johnstown, PA

9:36 AM EST on February 22, 2017 (GMT -0500)
Johnstown-Cambria County

Weather History for KJST - April, 2013

Change the Weather History Date:

Wednesday, April 3, 2013

  Actual Average Record
Temperature  
Mean Temperature 26 °F 42 °F  
Max Temperature 33 °F 51 °F 86 °F (1903)
Min Temperature 21 °F 34 °F 16 °F (1907)
Degree Days  
Heating Degree Days 38 23  
Month to date heating degree days 69  
Since 1 July heating degree days 5861  
Cooling Degree Days 0 0  
Month to date cooling degree days 0  
Year to date cooling degree days 0  
Moisture  
Dew Point 11 °F    
Average Humidity 54    
Maximum Humidity 80    
Minimum Humidity 34    
Precipitation  
Precipitation 0.00 in 0.14 in 1.30 in (1931)
Month to date precipitation 0.43  
Year to date precipitation 8.95  
Sea Level Pressure  
Sea Level Pressure 30.27 in    
Wind  
Wind Speed 13 mph (WNW)    
Max Wind Speed 24 mph    
Max Gust Speed 31 mph    
Visibility 9 miles    
Events Snow    
T = Trace of Precipitation, MM = Missing Value Source: NWS Daily Summary

Daily Weather History Graph

Daily Weather History Graph

Search for Another Location

Airport or City:

Trip Planner

Search our weather history database for the weather conditions in past years. The results will help you decide how hot, cold, wet, or windy it might be!

Date:

Astronomy

Apr. 03, 2013 Rise Set
Actual Time 6:55 AM EDT 7:42 PM EDT
Civil Twilight 6:27 AM EDT 8:09 PM EDT
Nautical Twilight 5:55 AM EDT 8:42 PM EDT
Astronomical Twilight 5:21 AM EDT 9:16 PM EDT
Moon 2:35 AM EDT (4/3) 12:51 PM EDT (4/3)
Length of Visible Light 13h 41m
Length of Day
12h 46m
Last Quarter, 45% of the Moon is Illuminated
Apr 3
Last Quarter
Apr 10
New
Apr 18
First Quarter
Apr 25
Full
May 2
Last Quarter

Hourly Weather History & Observations

Time (EDT) Temp. Windchill Dew Point Humidity Pressure Visibility Wind Dir Wind Speed Gust Speed Precip Events Conditions
12:54 AM 24.1 °F 15.2 °F 7.0 °F 48% 30.16 in 10.0 mi West 8.1 mph - N/A   Clear
1:54 AM 26.1 °F 16.8 °F 9.0 °F 49% 30.16 in 10.0 mi WSW 9.2 mph - N/A   Clear
2:54 AM 26.1 °F 16.2 °F 10.0 °F 51% 30.15 in 10.0 mi West 10.4 mph - N/A   Mostly Cloudy
3:54 AM 25.0 °F 13.1 °F 10.9 °F 55% 30.15 in 10.0 mi West 13.8 mph - N/A   Clear
4:54 AM 25.0 °F 12.6 °F 12.0 °F 58% 30.16 in 10.0 mi WNW 15.0 mph - N/A   Clear
5:54 AM 24.1 °F 13.1 °F 12.0 °F 60% 30.18 in 10.0 mi WNW 11.5 mph - N/A   Clear
6:54 AM 21.9 °F 11.7 °F 12.9 °F 68% 30.21 in 10.0 mi WNW 9.2 mph - N/A   Clear
7:54 AM 23.0 °F 13.1 °F 14.0 °F 68% 30.23 in 10.0 mi NW 9.2 mph - N/A   Clear
8:54 AM 25.0 °F 14.8 °F 14.0 °F 63% 30.23 in 10.0 mi NW 10.4 mph - N/A   Clear
9:54 AM 26.1 °F 14.0 °F 10.9 °F 53% 30.25 in 10.0 mi WNW 15.0 mph 26.5 mph N/A   Partly Cloudy
10:54 AM 28.0 °F 15.3 °F 7.0 °F 41% 30.27 in 10.0 mi WNW 18.4 mph 28.8 mph N/A   Clear
11:54 AM 30.0 °F 17.9 °F 8.1 °F 40% 30.28 in 10.0 mi West 18.4 mph 26.5 mph N/A   Clear
12:54 PM 30.9 °F 19.8 °F 8.1 °F 38% 30.27 in 10.0 mi WNW 16.1 mph 26.5 mph N/A   Partly Cloudy
1:54 PM 30.9 °F 19.1 °F 8.1 °F 38% 30.27 in 10.0 mi WNW 18.4 mph 24.2 mph N/A   Overcast
2:54 PM 30.9 °F 19.1 °F 9.0 °F 40% 30.27 in 10.0 mi WNW 18.4 mph 25.3 mph N/A   Overcast
3:54 PM 32.0 °F 18.9 °F 14.0 °F 48% 30.29 in 10.0 mi WNW 24.2 mph 31.1 mph N/A   Overcast
4:54 PM 30.0 °F 17.5 °F 17.1 °F 59% 30.31 in 10.0 mi WNW 19.6 mph 25.3 mph 0.00 in   Mostly Cloudy
5:12 PM 26.6 °F 13.4 °F 19.4 °F 74% 30.24 in 2.5 mi NW 18.4 mph 29.9 mph 0.00 in Snow Light Snow
5:15 PM 26.6 °F 13.1 °F 19.4 °F 74% 30.24 in 0.8 mi NW 19.6 mph 29.9 mph 0.00 in Snow Light Snow
5:24 PM 26.6 °F 14.7 °F 21.2 °F 80% 30.24 in 1.2 mi WNW 15.0 mph 21.9 mph 0.00 in Snow Light Snow
5:26 PM 28.4 °F 16.2 °F 21.2 °F 74% 30.24 in 4.0 mi WNW 17.3 mph 21.9 mph 0.00 in Snow Light Snow
5:33 PM 28.4 °F 16.6 °F 17.6 °F 64% 30.24 in 9.0 mi WNW 16.1 mph 23.0 mph 0.00 in   Mostly Cloudy
5:54 PM 28.9 °F 16.1 °F 12.0 °F 49% 30.34 in 10.0 mi WNW 19.6 mph 29.9 mph 0.00 in   Overcast
6:54 PM 28.0 °F 15.7 °F 3.0 °F 34% 30.38 in 10.0 mi NW 17.3 mph - N/A   Clear
7:54 PM 26.1 °F 16.8 °F 6.1 °F 43% 30.39 in 10.0 mi NW 9.2 mph - N/A   Clear
8:54 PM 25.0 °F 13.6 °F 7.0 °F 46% 30.40 in 10.0 mi NW 12.7 mph - N/A   Clear
9:54 PM 24.1 °F 15.2 °F 6.1 °F 46% 30.40 in 10.0 mi NNW 8.1 mph - N/A   Clear
10:54 PM 23.0 °F 14.7 °F 7.0 °F 50% 30.37 in 10.0 mi North 6.9 mph - N/A   Clear
11:54 PM 21.0 °F 14.6 °F 8.1 °F 57% 30.38 in 10.0 mi NW 4.6 mph - N/A   Clear